DAL9 EGLL-KMSP

Flight info

Callsign DAL9
Flight time N/A
Altitude 36000
Route CPT L9 DIDZA N14 OKTAD DCT MEDOG DCT VATRY DCT RESNO/M081F360 DCT 56N020W 57N030W 57N040W 56N050W DCT JANJO/N0463F360 N714B YBC/N0463F380 DCT RJ DCT YVO DCT SSM DCT CEWDA MUSCL4
Aircraft A339/H-SADE1E2E3GHIJ3J5M1P2RWXY/LB2D1

Departure

Time 2026-04-30 15:07
Airport London Heathrow Airport (EGLL)

Arrival

Time N/A
Airport Minneapolis–Saint Paul International Airport / Wold–Chamberlain Field (KMSP)
Time Latitude Longitude Altitude Speed Heading
2026-04-30 13:33 51.46850 -0.46350 95 ft 0 kts 57°
2026-04-30 14:56 51.46843 -0.46364 95 ft 2 kts 55°
2026-04-30 14:56 51.46826 -0.46404 95 ft 2 kts 56°
2026-04-30 14:57 51.46818 -0.46423 95 ft 2 kts 55°
2026-04-30 14:57 51.46805 -0.46464 95 ft 2 kts 107°
2026-04-30 14:58 51.46827 -0.46489 95 ft 1 kts 175°
2026-04-30 14:58 51.46836 -0.46491 95 ft 1 kts 152°
2026-04-30 14:58 51.46840 -0.46495 95 ft 0 kts 146°
2026-04-30 15:01 51.46830 -0.46483 95 ft 2 kts 145°
2026-04-30 15:01 51.46819 -0.46471 94 ft 3 kts 145°
2026-04-30 15:01 51.46713 -0.46417 94 ft 10 kts 179°
2026-04-30 15:02 51.46663 -0.46475 94 ft 10 kts 251°
2026-04-30 15:02 51.46656 -0.46608 94 ft 13 kts 271°
2026-04-30 15:03 51.46653 -0.47150 94 ft 18 kts 269°
2026-04-30 15:03 51.46652 -0.47581 94 ft 20 kts 270°
2026-04-30 15:04 51.46652 -0.48048 95 ft 21 kts 270°
2026-04-30 15:04 51.46603 -0.48467 95 ft 8 kts 189°
2026-04-30 15:05 51.46476 -0.48313 94 ft 10 kts 91°
2026-04-30 15:06 51.46481 -0.47274 94 ft 101 kts 90°
2026-04-30 15:06 51.46490 -0.44034 269 ft 174 kts 91°
2026-04-30 15:07 51.46148 -0.40355 1511 ft 171 kts 130°
2026-04-30 15:07 51.43806 -0.39781 2307 ft 209 kts 201°
2026-04-30 15:08 51.41796 -0.43819 2817 ft 255 kts 233°
2026-04-30 15:08 51.40160 -0.52299 4232 ft 294 kts 284°
2026-04-30 15:09 51.41455 -0.58472 5530 ft 295 kts 285°
2026-04-30 15:09 51.42475 -0.64804 5990 ft 294 kts 280°
2026-04-30 15:10 51.43270 -0.71201 5988 ft 291 kts 278°
2026-04-30 15:11 51.44803 -0.83877 5986 ft 293 kts 278°
2026-04-30 15:11 51.45574 -0.90281 5986 ft 293 kts 277°
2026-04-30 15:12 51.46670 -0.99897 5987 ft 292 kts 277°
2026-04-30 15:13 51.47400 -1.06297 5990 ft 291 kts 278°
2026-04-30 15:14 51.48837 -1.19001 5987 ft 292 kts 278°
2026-04-30 15:14 51.52353 -1.26932 6786 ft 303 kts 318°
2026-04-30 15:16 51.60118 -1.38588 9694 ft 312 kts 311°
2026-04-30 15:17 51.64687 -1.51120 11122 ft 350 kts 296°
2026-04-30 15:18 51.70372 -1.69542 13559 ft 374 kts 283°
2026-04-30 15:19 51.71458 -1.82025 15181 ft 380 kts 273°